Theta_e
343 341 342 343 343 342 342 342 347 347 346 345 346 341 341 341 341 341 344 344 344 339 337 338 338 339 337 337 335 333 332 334 336 338 337 337 336 333 334 334 332 337 334
336 338 341 341 343 343 344 343 345 346 343 346 346 342 342 342 342 343 345 346 345 342 337 338 340 340 336 336 337 337 335 334 335 337 338 338 336 337 334 334 332 333 332
342 342 343 343 344 345 346 344 346 346 343 344 346 345 341 342 344 346 343 344 345 345 341 337 339 338 338 337 336 337 337 335 337 337 337 336 336 334 336 335 334 331 333
343 343 343 345 344 345 347 347 346 344 340 346 347 343 343 342 343 344 344 345 345 345 345 346 337 337 337 337 337 338 336 335 339 338 336 336 335 334 335 335 335 334 331
345 345 346 344 346 345 343 343 339 341 339 341 342 346 345 345 345 344 345 346 345 345 346 345 346 341 339 338 336 334 335 340 342 343 342 340 337 332 332 334 336 336 333
346 346 346 345 345 344 346 344 343 340 345 347 347 344 347 348 347 346 345 347 346 346 344 345 348 347 338 335 339 340 341 342 343 343 342 340 339 334 334 332 336 336 336
349 346 344 347 343 344 344 343 345 343 343 347 347 345 341 344 345 345 345 344 345 346 347 346 344 347 347 346 342 339 341 340 341 342 341 341 339 334 331 328 334 336 335
350 347 345 345 345 345 345 345 345 345 340 343 345 347 342 341 344 345 344 345 345 346 346 347 347 347 348 349 348 347 343 340 339 342 342 340 340 338 329 326 332 334 334
351 348 348 347 346 345 348 347 346 342 341 343 344 347 342 345 342 339 346 347 348 347 346 346 347 348 349 348 348 350 349 341 340 343 343 343 341 340 336 327 329 330 331
351 351 351 351 345 339 340 343 342 340 342 344 345 347 347 346 344 338 340 340 345 345 346 346 346 347 347 347 347 348 349 349 343 343 343 342 343 341 336 330 328 328 328
351 351 352 352 345 345 347 342 342 344 343 342 344 345 345 343 341 341 341 343 345 341 346 345 346 346 346 347 348 348 348 346 345 346 343 343 343 344 339 333 329 329 329
353 350 352 354 352 349 349 348 347 345 347 346 344 345 343 341 339 340 340 341 347 346 342 346 346 345 345 345 346 346 346 348 348 344 343 344 344 344 344 341 337 332 330
352 352 351 354 351 347 350 348 349 348 347 348 346 347 347 346 345 346 344 342 343 342 348 348 345 346 346 346 346 346 347 346 344 345 344 344 344 344 346 344 342 340 335
350 353 349 352 350 352 351 353 350 350 349 348 348 347 347 349 347 348 348 347 345 345 347 348 347 347 347 346 347 347 346 345 344 342 343 344 344 345 347 346 344 341 339
352 354 350 351 352 351 352 352 350 350 350 348 348 346 346 347 348 349 345 345 346 348 345 337 348 348 348 348 349 346 346 349 347 345 343 343 344 345 347 347 346 344 342
350 349 349 353 352 350 348 343 347 348 348 344 344 345 347 341 342 341 338 339 341 342 344 344 343 347 351 347 351 349 349 349 349 348 346 344 343 344 347 348 347 343 343
349 349 347 346 344 341 338 342 341 341 345 344 344 343 343 344 340 339 338 338 341 342 341 338 339 340 341 346 346 345 351 350 349 349 345 344 343 345 346 346 347 346 345
344 349 345 342 340 335 336 336 345 343 342 341 339 338 337 335 335 334 335 336 339 341 343 342 342 342 341 341 345 348 348 350 349 349 348 346 344 344 345 345 345 348 345
340 342 341 339 335 336 336 335 331 327 327 337 336 336 335 335 335 334 334 332 332 333 335 337 340 342 339 340 341 343 347 347 346 348 348 347 346 344 344 344 345 347 345
340 341 339 337 336 334 335 333 329 339 332 337 338 337 337 337 335 335 334 334 332 330 331 334 335 335 337 338 338 342 344 346 347 350 346 347 347 347 347 344 345 346 346
339 338 335 337 337 337 334 329 330 336 339 339 337 338 337 337 337 336 334 332 331 331 329 326 328 333 334 335 337 338 339 345 345 348 348 348 348 348 347 346 345 345 345
337 333 335 335 337 338 337 337 337 337 337 337 336 336 335 335 334 334 333 331 331 330 330 329 329 331 334 337 336 336 336 336 336 342 347 350 347 348 349 350 350 345 343
333 334 334 334 334 336 336 336 336 336 335 335 334 333 333 331 331 331 330 329 328 329 330 331 331 329 330 334 337 337 340 341 340 339 340 342 347 349 346 347 347 349 346
327 325 324 323 322 320 319 316 314 311 311 315 318 321 323 324 325 326 327 328 328 329 329 330 333 334 335 332 329 332 334 334 336 338 340 343 344 346 348 347 347 347 348
314 315 316 314 310 309 309 308 307 309 315 317 317 316 318 321 323 323 324 325 325 325 326 327 327 328 330 330 334 338 338 337 337 336 336 337 339 342 346 348 347 347 348
317 308 311 314 314 314 318 315 312 312 315 316 316 316 316 315 316 317 317 319 322 323 325 325 326 328 331 333 333 331 329 336 335 333 331 334 337 342 345 345 346 349 349
Wind_Speed
14 9 9 11 13 11 12 14 12 11 8 10 11 11 11 12 13 13 11 15 17 17 17 17 17 16 16 15 12 12 10 10 9 10 10 9 9 8 9 7 7 7 6
11 13 13 15 14 11 12 12 7 8 12 11 11 12 12 12 14 13 11 15 16 15 16 18 19 17 15 16 14 15 14 13 13 12 12 11 11 11 9 10 9 8 8
13 12 15 15 14 11 12 10 9 12 9 6 11 12 11 14 14 11 13 13 14 14 11 16 20 18 18 19 18 17 16 15 14 13 13 13 13 13 13 12 11 10 9
14 16 14 11 10 13 11 12 9 10 6 9 9 14 14 12 16 15 16 13 14 14 15 12 14 18 19 20 19 19 17 16 15 14 13 14 14 15 15 15 12 12 10
14 14 11 10 13 12 19 13 12 9 9 11 14 11 16 19 15 16 15 15 14 15 15 16 13 13 15 15 16 17 16 15 16 15 13 14 15 16 17 17 15 13 12
14 14 9 11 12 17 12 11 10 9 10 10 11 13 12 17 16 18 17 11 15 12 12 14 13 15 14 14 14 15 16 15 15 15 15 14 15 16 18 18 17 15 14
12 15 12 14 15 14 14 13 10 10 9 12 16 17 17 14 18 13 19 18 16 12 12 14 15 16 19 16 16 19 19 17 16 16 16 16 16 16 18 20 19 18 15
11 13 12 13 15 15 14 13 12 12 14 12 17 11 9 11 18 18 16 19 15 15 15 16 18 16 16 16 17 16 18 22 19 17 17 17 17 17 17 19 20 19 18
12 14 12 11 11 12 13 11 10 12 12 10 14 10 5 6 11 15 16 16 17 15 15 15 15 17 19 20 20 18 21 19 20 19 17 16 17 17 17 19 20 20 18
13 13 12 11 8 8 10 13 19 17 13 12 11 12 13 9 3 8 8 15 15 15 14 13 13 15 17 20 20 21 22 19 19 20 20 19 16 17 17 18 20 20 20
10 10 12 11 7 4 6 8 8 9 10 12 11 11 14 14 13 12 12 15 8 14 15 17 14 14 15 15 15 19 21 24 27 24 24 24 21 18 18 18 19 20 20
11 10 11 10 9 5 4 4 5 8 8 9 11 13 12 13 13 13 17 19 14 14 17 15 16 14 15 17 17 18 20 20 22 26 28 26 25 23 20 19 19 19 19
8 11 10 10 8 5 6 3 5 6 5 6 7 6 11 12 10 16 18 17 22 22 23 18 16 14 15 14 15 17 18 22 26 29 28 29 26 25 24 21 21 20 19
12 9 11 9 8 8 6 4 3 2 6 5 5 7 9 7 13 15 15 16 20 23 21 22 13 15 13 14 15 18 20 26 27 25 28 29 28 26 26 25 23 22 21
13 14 12 8 8 7 6 5 3 1 4 4 7 8 6 8 9 11 15 14 14 16 26 20 24 18 12 16 15 15 13 14 20 21 27 29 28 26 26 26 26 25 24
15 13 13 10 8 7 6 4 3 5 2 2 5 4 7 8 10 11 12 15 15 19 26 23 20 17 17 17 9 10 14 16 18 20 21 26 29 29 27 26 26 26 26
16 15 14 15 8 4 6 10 8 5 5 6 8 7 9 11 12 13 13 14 16 19 22 26 23 22 26 19 19 18 18 17 16 19 19 24 29 30 30 29 28 28 28
20 13 14 23 19 10 10 11 7 6 4 9 9 11 11 10 14 15 15 17 19 19 22 26 23 21 20 23 22 20 20 17 20 21 20 19 25 31 31 32 31 30 31
27 16 9 17 18 18 18 18 16 13 9 11 10 11 12 13 14 14 16 17 18 22 25 27 26 21 21 19 20 22 23 22 22 18 22 22 24 26 32 32 32 32 32
8 15 18 13 8 8 11 13 11 12 13 13 12 13 15 16 19 20 18 20 23 24 24 27 27 27 25 19 20 20 19 23 21 18 22 25 24 22 20 30 33 33 34
4 7 8 16 19 17 10 16 17 17 16 17 19 18 19 21 24 27 29 27 25 24 23 27 30 28 26 23 20 16 19 17 20 25 23 22 22 27 27 26 32 35 35
7 7 5 6 7 7 13 17 18 22 25 27 24 26 26 25 28 28 27 28 28 28 30 30 28 30 31 25 21 22 24 23 23 18 23 25 23 26 26 28 25 26 35
4 7 9 11 13 13 18 22 25 27 30 31 32 33 29 28 29 30 32 34 33 28 28 28 30 30 34 31 26 26 21 22 23 21 22 26 29 30 30 29 28 31 31
10 12 13 15 17 17 22 23 24 26 26 24 24 24 26 28 27 27 26 26 26 27 26 28 29 31 30 29 35 36 33 34 32 30 25 29 24 33 22 26 29 28 31
12 13 12 13 15 16 18 20 22 22 19 19 20 21 22 24 25 28 31 29 28 28 26 28 30 33 33 36 33 29 29 32 30 27 24 28 28 26 24 29 28 33 30
8 12 12 12 14 16 16 21 24 21 19 19 19 20 21 22 27 30 31 30 30 27 25 27 30 31 30 30 30 32 39 36 32 31 29 26 26 25 27 27 33 29 27
Wind_Direction
252 244 253 256 258 262 269 260 237 258 231 235 220 240 240 242 245 251 264 266 277 265 248 240 238 239 247 239 245 253 259 259 262 256 249 250 250 254 249 253 252 249 258
268 249 252 258 271 261 265 263 251 254 248 248 232 233 237 240 239 238 242 269 277 283 252 237 238 245 244 235 249 254 254 260 261 256 255 251 250 249 251 247 251 249 249
263 256 261 252 253 240 247 245 239 264 285 225 238 234 235 236 248 248 245 248 269 281 283 250 240 247 245 245 255 249 252 254 257 258 255 255 254 252 249 246 243 248 251
250 258 258 248 246 229 238 248 259 259 283 238 250 237 233 246 250 233 243 245 245 254 275 273 257 252 251 248 245 246 247 250 253 253 255 256 257 255 250 248 243 244 246
253 253 252 246 232 233 243 252 235 263 278 248 242 251 253 239 234 250 236 241 236 248 259 267 262 267 250 243 245 242 243 246 251 254 253 259 259 256 250 248 243 243 244
246 249 237 233 228 229 244 255 255 250 270 259 254 251 245 260 245 236 244 235 244 236 238 255 255 268 257 248 246 245 247 248 253 253 255 255 261 262 252 244 247 246 243
239 246 227 237 239 239 248 247 252 268 254 261 245 262 258 261 255 254 242 234 243 233 228 234 233 250 258 262 260 254 253 256 252 254 254 254 259 263 259 247 239 242 244
240 258 251 240 252 252 257 256 244 252 271 256 248 248 278 265 243 237 238 240 237 238 240 237 241 241 244 262 262 264 262 253 250 251 249 254 254 257 256 248 244 242 242
237 241 242 249 261 266 248 252 250 251 283 281 253 227 249 249 267 269 265 248 240 238 238 240 245 244 246 245 245 259 265 254 248 244 246 252 255 256 256 252 245 242 242
237 241 242 243 260 287 258 253 253 250 271 264 237 230 257 249 259 312 268 244 233 245 249 236 241 245 248 246 246 241 250 259 251 245 252 253 256 257 258 257 252 247 243
239 231 240 242 253 293 294 254 235 241 249 248 247 253 247 259 266 261 260 262 296 252 265 247 244 245 250 241 242 250 257 255 248 247 248 252 252 255 253 255 252 250 248
249 242 231 234 242 244 258 279 288 255 247 243 241 249 257 268 278 292 288 300 292 277 266 235 251 245 241 241 243 245 252 255 258 255 249 251 250 251 252 252 251 250 250
247 262 236 222 225 245 222 233 266 270 251 241 246 259 268 278 281 279 289 287 289 305 298 260 255 249 243 237 241 248 255 264 263 257 249 247 247 250 254 251 252 251 248
218 235 245 220 214 221 235 241 284 247 270 275 264 250 248 269 273 271 286 282 284 286 292 288 263 246 246 242 234 242 254 266 263 254 242 239 242 249 249 249 251 249 248
240 235 233 219 221 218 199 213 107 224 281 329 316 302 329 316 290 292 314 304 292 292 296 291 302 330 242 240 240 243 258 272 271 254 239 237 240 244 246 247 248 248 247
250 242 222 197 203 215 179 161 219 222 216 271 283 289 270 290 288 284 288 287 277 288 288 295 300 293 291 262 273 275 281 267 262 258 248 241 239 243 242 246 247 246 245
271 248 235 235 181 179 206 192 204 233 258 272 278 292 285 282 293 291 289 285 281 286 286 290 292 289 288 287 263 253 264 262 265 263 261 247 245 243 243 246 249 247 242
250 243 251 251 232 239 233 237 210 229 247 274 279 278 280 285 272 286 291 286 282 286 284 289 298 301 299 299 281 267 253 253 259 260 265 261 248 244 247 249 249 246 243
259 259 259 263 267 249 239 238 242 260 259 265 268 269 281 280 282 282 281 289 289 285 281 286 286 287 289 286 281 283 265 250 245 243 255 257 259 255 245 246 249 247 240
249 257 252 236 215 248 248 253 267 269 275 270 270 276 279 288 291 290 285 284 292 291 285 283 277 276 274 278 271 274 278 262 251 246 252 258 261 259 261 250 245 246 242
271 265 258 255 264 271 261 257 263 269 269 267 276 278 279 281 273 276 285 287 287 288 283 278 279 278 273 269 263 269 266 270 275 249 239 240 258 254 256 257 252 246 242
221 233 237 256 264 247 252 254 261 264 268 274 281 281 278 281 288 291 288 286 285 284 284 278 271 271 271 279 276 274 273 275 267 264 264 254 240 246 251 261 259 251 248
255 255 262 268 263 259 264 268 269 271 272 274 276 280 284 284 279 277 276 276 278 278 276 277 274 267 262 259 263 267 265 263 268 268 265 263 243 242 246 240 258 256 257
304 300 295 286 283 284 279 283 284 285 285 286 284 283 280 278 280 283 284 279 275 272 271 269 270 273 270 267 259 258 261 264 265 266 260 263 264 249 246 250 245 254 257
315 311 309 308 306 302 298 300 299 300 297 293 291 286 281 279 277 273 270 274 277 276 275 272 265 267 265 265 262 265 255 249 252 257 255 258 261 256 252 246 245 252 255
327 324 311 317 314 317 321 313 315 317 313 309 299 292 282 283 281 275 272 271 268 271 277 274 264 260 268 267 261 254 253 252 256 259 253 261 259 260 260 255 239 235 245